GW1145 Weather Reports


time (UTC)temp
C
wind
direction
speed
KPH
gust
KPH
rain 1hr
cm
rain 24hr
cm
rain mn
cm
humidity
%
barometer
mb
20260507105424 3 239 0.0 0.0 0.00 0.84 0.00 95 1005.1
20260507105319 3 239 0.0 0.0 0.00 0.84 0.00 95 1005.1
20260507105215 3 239 0.0 0.0 0.00 0.84 0.00 95 1005.1
20260507105112 3 239 0.0 0.0 0.00 0.84 0.00 95 1005.1
20260507105011 3 239 0.0 0.0 0.00 0.84 0.00 95 1005.2
20260507104420 3 239 0.0 0.0 0.00 0.84 0.00 95 1005.1
20260507104314 3 239 0.0 0.0 0.00 0.84 0.00 95 1005.1
20260507104207 3 239 0.0 0.0 0.00 0.84 0.00 95 1005.1
20260507104105 3 239 0.0 0.0 0.00 0.84 0.00 95 1005.1
20260507104000 3 239 0.0 0.0 0.00 0.84 0.00 95 1005.1
20260507103859 3 239 0.0 0.0 0.00 0.84 0.00 95 1005.0
20260507103755 3 239 0.0 0.0 0.00 0.84 0.00 95 1005.0
20260507103648 3 239 0.0 0.0 0.00 0.84 0.00 96 1005.0
20260507103544 3 239 0.0 0.0 0.00 0.84 0.00 96 1005.0
20260507103004 3 239 0.0 0.0 0.00 0.84 0.00 96 1004.8
20260507102902 3 239 0.0 0.0 0.00 0.84 0.00 96 1004.7
20260507102758 3 239 0.0 0.0 0.00 0.84 0.00 96 1004.6
20260507102654 3 239 0.0 0.0 0.00 0.84 0.00 96 1004.6
20260507102548 3 239 0.0 0.0 0.00 0.84 0.00 96 1004.7
20260507102442 3 239 0.0 0.0 0.00 0.84 0.00 96 1004.6
20260507102335 3 239 0.0 0.0 0.00 0.84 0.00 95 1004.7
20260507102232 3 239 0.0 0.0 0.00 0.84 0.00 95 1004.7
20260507102126 3 239 0.0 0.0 0.00 0.84 0.00 95 1004.8
20260507101803 3 239 0.0 0.0 0.00 0.84 0.00 95 1004.9
20260507101658 3 239 0.0 0.0 0.00 0.84 0.00 95 1004.9
20260507101550 3 240 0.0 0.0 0.00 0.84 0.00 95 1004.9
20260507101448 3 240 0.0 0.0 0.00 0.84 0.00 95 1004.9
20260507101125 3 290 0.0 0.0 0.00 0.84 0.00 95 1004.8
20260507101018 3 277 0.0 0.0 0.00 0.84 0.00 95 1004.7
20260507100651 3 275 0.0 0.0 0.00 0.84 0.00 95 1004.3
20260507100549 3 300 0.0 0.0 0.00 0.84 0.00 95 1004.3
20260507100442 3 306 0.0 0.0 0.00 0.84 0.00 95 1004.3
20260507095856 3 306 0.0 0.0 0.00 0.84 0.00 95 1004.2
20260507095751 3 306 0.0 0.0 0.00 0.84 0.00 95 1004.3
20260507095211 3 306 0.0 0.0 0.00 0.84 0.00 95 1004.5
20260507095109 3 306 0.0 0.0 0.00 0.84 0.00 95 1004.5
20260507095004 3 306 0.0 0.0 0.00 0.84 0.00 95 1004.6
20260507094902 3 306 0.0 0.0 0.00 0.84 0.00 95 1004.6
20260507094757 3 306 0.0 0.0 0.00 0.84 0.00 95 1004.7
20260507094653 3 306 0.0 0.0 0.00 0.84 0.00 95 1004.6
20260507094550 3 306 0.0 0.0 0.00 0.84 0.00 95 1004.6
20260507094445 3 306 0.0 0.0 0.00 0.84 0.00 95 1004.6
20260507094342 3 306 0.0 0.0 0.00 0.84 0.00 95 1004.6
20260507094239 3 306 0.0 0.0 0.00 0.84 0.00 95 1004.6
20260507094136 3 306 0.0 0.0 0.00 0.84 0.00 95 1004.7
20260507094031 3 306 0.0 0.0 0.00 0.84 0.00 95 1004.6
20260507093928 3 306 0.0 0.0 0.00 0.84 0.00 95 1004.6
20260507093827 3 306 0.0 0.0 0.00 0.84 0.00 95 1004.6
20260507093506 3 306 0.0 0.0 0.00 0.84 0.00 95 1004.7
20260507093400 3 306 0.0 0.0 0.00 0.84 0.00 95 1004.7
20260507093257 3 306 0.0 0.0 0.00 0.84 0.00 95 1004.8
20260507093153 3 306 0.0 0.0 0.00 0.84 0.00 95 1004.7
20260507093045 3 306 0.0 0.0 0.00 0.84 0.00 95 1004.7
20260507092504 3 306 0.0 0.0 0.00 0.84 0.00 95 1004.8
20260507092359 3 306 0.0 0.0 0.00 0.84 0.00 95 1004.9
20260507092253 3 306 0.0 0.0 0.00 0.84 0.00 95 1004.9
20260507092149 3 306 0.0 0.0 0.00 0.84 0.00 95 1004.9
20260507092041 3 306 0.0 0.0 0.00 0.84 0.00 95 1004.9
20260507091934 3 306 0.0 0.0 0.00 0.84 0.00 95 1004.9
20260507091608 3 306 0.0 0.0 0.00 0.84 0.00 95 1005.0
20260507091503 3 306 0.0 0.0 0.00 0.84 0.00 95 1004.9
20260507091356 3 306 0.0 0.0 0.00 0.84 0.00 95 1004.9
20260507091250 3 306 0.0 0.0 0.00 0.84 0.00 95 1004.9
20260507090927 3 313 0.0 0.0 0.00 0.84 0.00 95 1005.0
20260507090820 3 313 0.0 0.0 0.00 0.84 0.00 95 1005.0
20260507090717 3 355 0.0 0.0 0.00 0.84 0.00 95 1005.0
20260507090609 3 355 0.0 0.0 0.00 0.84 0.00 95 1004.9
20260507090026 3 355 0.0 0.0 0.00 0.84 0.00 95 1005.0
20260507085922 3 355 0.0 0.0 0.00 0.84 0.00 95 1005.0
20260507085601 3 355 0.0 0.0 0.00 0.84 0.00 95 1004.9
20260507085458 3 355 0.0 0.0 0.00 0.84 0.00 95 1004.9
20260507085130 3 355 0.0 0.0 0.00 0.84 0.00 95 1004.8
20260507085027 3 355 0.0 0.0 0.00 0.84 0.00 95 1004.8
20260507084440 3 5 0.0 0.0 0.00 0.84 0.00 95 1005.0
20260507084335 3 5 0.0 0.0 0.00 0.84 0.00 95 1004.9
20260507084011 3 5 0.0 0.0 0.00 0.84 0.00 95 1005.0
20260507083904 3 5 0.0 0.0 0.00 0.84 0.00 95 1005.0
20260507083801 3 5 0.0 0.0 0.00 0.84 0.00 95 1004.9
20260507083655 3 5 0.0 0.0 0.00 0.84 0.00 95 1005.0
20260507083552 3 5 0.0 0.0 0.00 0.84 0.00 95 1005.0
20260507083444 3 5 0.0 0.0 0.00 0.84 0.00 95 1005.0
20260507083117 3 5 0.0 0.0 0.00 0.84 0.00 95 1005.0
20260507083011 3 5 0.0 0.0 0.00 0.84 0.00 95 1005.0
20260507082906 3 5 0.0 0.0 0.00 0.84 0.00 95 1005.1
20260507082539 3 346 0.0 0.0 0.00 0.84 0.00 95 1005.1
20260507082436 3 346 0.0 0.0 0.00 0.84 0.00 95 1005.2
20260507082334 3 346 0.0 0.0 0.00 0.84 0.00 95 1005.1
20260507082227 3 346 0.0 0.0 0.00 0.84 0.00 95 1005.1
20260507082124 3 346 0.0 0.0 0.00 0.84 0.00 95 1005.1
20260507082020 3 346 0.0 0.0 0.00 0.84 0.00 95 1005.1
20260507081918 3 346 0.0 0.0 0.00 0.84 0.00 95 1005.2
20260507081815 3 346 0.0 0.0 0.00 0.84 0.00 95 1005.2
20260507081709 3 346 0.0 0.0 0.00 0.84 0.00 95 1005.2
20260507081607 3 346 0.0 0.0 0.00 0.84 0.00 95 1005.1
20260507081505 3 346 0.0 0.0 0.00 0.84 0.00 95 1005.2
20260507081358 3 346 0.0 0.0 0.00 0.84 0.00 95 1005.2
20260507081255 3 346 0.0 0.0 0.00 0.84 0.00 95 1005.2
20260507081149 3 346 0.0 0.0 0.00 0.84 0.00 95 1005.2
20260507081044 3 346 0.0 0.0 0.00 0.84 0.00 95 1005.2
20260507080942 3 346 0.0 0.0 0.00 0.84 0.00 95 1005.2
20260507080834 3 346 0.0 0.0 0.00 0.84 0.00 95 1005.2
20260507080729 3 346 0.0 0.0 0.00 0.84 0.00 95 1005.2
20260507080627 3 346 0.0 0.0 0.00 0.84 0.00 95 1005.2
20260507080522 3 346 0.0 0.0 0.00 0.84 0.00 95 1005.2
20260507080419 3 346 0.0 0.0 0.00 0.84 0.00 95 1005.2
20260507080054 3 346 0.0 0.0 0.00 0.84 0.00 95 1005.2
20260507075949 3 346 0.0 0.0 0.00 0.84 0.00 95 1005.2
20260507075841 3 346 0.0 0.0 0.00 0.84 0.00 95 1005.2
20260507075734 3 346 0.0 0.0 0.00 0.84 0.00 95 1005.3
20260507075627 3 346 0.0 0.0 0.00 0.84 0.00 95 1005.3
20260507075524 3 346 0.0 0.0 0.00 0.84 0.00 95 1005.3
20260507075419 3 346 0.0 0.0 0.00 0.84 0.00 95 1005.3
20260507075313 3 346 0.0 0.0 0.00 0.84 0.00 95 1005.3
20260507075208 3 346 0.0 0.0 0.00 0.84 0.00 95 1005.3
20260507075104 3 346 0.0 0.0 0.00 0.84 0.00 95 1005.2
20260507075002 3 346 0.0 0.0 0.00 0.84 0.00 95 1005.3
20260507074415 3 346 0.0 0.0 0.00 0.84 0.00 95 1005.3
20260507074310 3 346 0.0 0.0 0.00 0.84 0.00 95 1005.3
20260507074203 3 346 0.0 0.0 0.00 0.84 0.00 95 1005.3
20260507074100 3 346 0.0 0.0 0.00 0.84 0.00 95 1005.2
20260507073954 3 346 0.0 0.0 0.00 0.84 0.00 95 1005.3
20260507073846 3 346 0.0 0.0 0.00 0.84 0.00 95 1005.2
20260507073521 3 346 0.0 0.0 0.00 0.84 0.00 95 1005.2
20260507073415 3 346 0.0 0.0 0.00 0.84 0.00 95 1005.3
20260507073312 3 346 0.0 0.0 0.00 0.84 0.00 95 1005.3
20260507073206 3 346 0.0 0.0 0.00 0.84 0.00 95 1005.3
20260507073104 3 346 0.0 0.0 0.00 0.84 0.00 95 1005.3
20260507072742 3 346 0.0 0.0 0.00 0.84 0.00 95 1005.2
20260507072635 3 346 0.0 0.0 0.00 0.84 0.00 95 1005.2
20260507072310 3 346 0.0 0.0 0.00 0.84 0.00 95 1005.2
20260507072206 3 346 0.0 0.0 0.00 0.84 0.00 95 1005.2
20260507071843 3 346 0.0 0.0 0.00 0.84 0.00 95 1005.2
20260507071735 3 346 0.0 0.0 0.00 0.84 0.00 95 1005.2
20260507071415 3 346 0.0 0.0 0.00 0.84 0.00 95 1005.4
20260507071312 3 346 0.0 0.0 0.00 0.84 0.00 95 1005.3
20260507071205 3 346 0.0 0.0 0.00 0.84 0.00 95 1005.3
20260507071101 3 346 0.0 0.0 0.00 0.84 0.00 95 1005.4
20260507070957 3 346 0.0 0.0 0.00 0.84 0.00 95 1005.4
20260507070850 3 346 0.0 0.0 0.00 0.84 0.00 95 1005.3
20260507070744 3 346 0.0 0.0 0.00 0.84 0.00 95 1005.4
20260507070637 3 346 0.0 0.0 0.00 0.84 0.00 95 1005.4
20260507070534 3 346 0.0 0.0 0.00 0.84 0.00 95 1005.4
20260507070429 3 346 0.0 0.0 0.00 0.84 0.00 95 1005.5
20260507070321 3 346 0.0 0.0 0.00 0.84 0.00 95 1005.5
20260507070215 3 346 0.0 0.0 0.00 0.84 0.00 95 1005.5
20260507070112 3 346 0.0 0.0 0.00 0.84 0.00 95 1005.5
20260507070011 3 346 0.0 0.0 0.00 0.84 0.00 95 1005.5
20260507065905 3 346 0.0 0.0 0.00 0.84 0.00 95 1005.5
20260507065802 3 346 0.0 0.0 0.00 0.84 0.00 95 1005.5
20260507065658 3 346 0.0 0.0 0.00 0.84 0.00 95 1005.5
20260507065556 3 346 0.0 0.0 0.00 0.84 0.00 95 1005.5
20260507065452 3 346 0.0 0.0 0.00 0.84 0.00 95 1005.5
20260507065130 3 346 0.0 0.0 0.00 0.84 0.00 95 1005.5
20260507065028 3 346 0.0 0.0 0.00 0.84 0.00 95 1005.5
20260507064440 3 346 0.0 0.0 0.00 0.84 0.00 95 1005.6
20260507064337 3 346 0.0 0.0 0.00 0.84 0.00 95 1005.5
20260507064232 3 346 0.0 0.0 0.00 0.84 0.00 95 1005.5
20260507063908 3 346 0.0 0.0 0.00 0.84 0.00 95 1005.6
20260507063805 3 346 0.0 0.0 0.00 0.84 0.00 95 1005.6
20260507063658 3 346 0.0 0.0 0.00 0.84 0.00 95 1005.6
20260507063554 3 346 0.0 0.0 0.00 0.84 0.00 95 1005.6
20260507063449 3 346 0.0 0.0 0.00 0.84 0.00 95 1005.6
20260507063120 2 346 0.0 0.0 0.00 0.84 0.00 95 1005.7
20260507063016 2 346 0.0 0.0 0.00 0.84 0.00 95 1005.6
20260507062426 2 346 0.0 0.0 0.00 0.84 0.00 95 1005.6
20260507062321 2 346 0.0 0.0 0.00 0.84 0.00 95 1005.7
20260507062214 2 346 0.0 0.0 0.00 0.84 0.00 95 1005.6
20260507062108 2 346 0.0 0.0 0.00 0.84 0.00 95 1005.7
20260507062002 2 346 0.0 0.0 0.00 0.84 0.00 95 1005.7
20260507061640 2 346 0.0 0.0 0.00 0.84 0.00 95 1005.7
20260507061538 2 346 0.0 0.0 0.00 0.84 0.00 95 1005.7
20260507061434 2 346 0.0 0.0 0.00 0.84 0.00 95 1005.8
20260507061330 2 346 0.0 0.0 0.00 0.84 0.00 95 1005.8
20260507061225 2 346 0.0 0.0 0.00 0.84 0.00 95 1005.8
20260507061118 2 346 0.0 0.0 0.00 0.84 0.00 95 1005.8
20260507061011 2 346 0.0 0.0 0.00 0.84 0.00 95 1005.8
20260507060904 2 346 0.0 0.0 0.00 0.84 0.00 95 1005.8
20260507060800 2 346 0.0 0.0 0.00 0.84 0.00 95 1005.9
20260507060655 2 346 0.0 0.0 0.00 0.84 0.00 95 1005.9
20260507060328 2 346 0.0 0.0 0.00 0.84 0.00 95 1005.9
20260507060222 2 346 0.0 0.0 0.00 0.84 0.00 95 1005.9
20260507060115 2 346 0.0 0.0 0.00 0.84 0.00 95 1005.9
20260507060011 2 346 0.0 0.0 0.00 0.84 0.00 95 1005.9
20260507055910 2 346 0.0 0.0 0.00 0.84 0.00 95 1005.9
20260507055807 2 346 0.0 0.0 0.00 0.84 0.00 95 1005.9
20260507055705 2 346 0.0 0.0 0.00 0.84 0.00 95 1005.9
20260507055600 2 346 0.0 0.0 0.00 0.84 0.00 95 1005.9
20260507055454 2 346 0.0 0.0 0.00 0.84 0.00 95 1005.9
20260507055352 2 346 0.0 0.0 0.00 0.84 0.00 95 1006.0
20260507055247 2 346 0.0 0.0 0.00 0.84 0.00 95 1005.9
20260507055145 2 346 0.0 0.0 0.00 0.84 0.00 95 1006.0
20260507055038 2 346 0.0 0.0 0.00 0.84 0.00 95 1005.9
20260507054932 2 346 0.0 0.0 0.00 0.84 0.00 95 1006.0
20260507054827 2 346 0.0 0.0 0.00 0.84 0.00 95 1006.0
20260507054721 2 346 0.0 0.0 0.00 0.84 0.00 95 1006.0
20260507054616 2 346 0.0 0.0 0.00 0.84 0.00 95 1006.0
20260507054511 2 346 0.0 0.0 0.00 0.84 0.00 95 1006.0
20260507054404 2 346 0.0 0.0 0.00 0.84 0.00 95 1006.0
20260507054043 2 346 0.0 0.0 0.00 0.84 0.00 95 1006.1
20260507053941 2 346 0.0 0.0 0.00 0.84 0.00 95 1006.1
20260507053836 2 346 0.0 0.0 0.00 0.84 0.00 95 1006.1
20260507053733 2 346 0.0 0.0 0.00 0.84 0.00 95 1006.1
20260507053628 2 346 0.0 0.0 0.00 0.84 0.00 95 1006.1
20260507053522 2 346 0.0 0.0 0.00 0.84 0.00 95 1006.1
20260507053420 2 346 0.0 0.0 0.00 0.84 0.00 95 1006.1
20260507053317 2 346 0.0 0.0 0.00 0.84 0.00 95 1006.1
20260507053215 2 346 0.0 0.0 0.00 0.84 0.00 95 1006.0
20260507053109 2 346 0.0 0.0 0.00 0.84 0.00 95 1006.1
20260507053005 2 346 0.0 0.0 0.00 0.84 0.00 95 1006.0
20260507052900 2 346 0.0 0.0 0.00 0.84 0.00 95 1006.0
20260507052536 2 346 0.0 0.0 0.00 0.84 0.00 95 1006.0
20260507052429 2 346 0.0 0.0 0.00 0.84 0.00 95 1006.0
20260507052323 2 346 0.0 0.0 0.00 0.84 0.00 95 1006.0
20260507052219 2 346 0.0 0.0 0.00 0.84 0.00 95 1006.0
20260507052115 2 346 0.0 0.0 0.00 0.84 0.00 95 1006.0
20260507052010 2 346 0.0 0.0 0.00 0.84 0.00 95 1006.0
20260507051430 2 346 0.0 0.0 0.00 0.84 0.00 95 1006.0
20260507051327 2 346 0.0 0.0 0.00 0.84 0.00 95 1006.0
20260507051225 2 346 0.0 0.0 0.00 0.84 0.00 95 1006.1
20260507051123 2 346 0.0 0.0 0.00 0.84 0.00 95 1006.1
20260507051017 2 346 0.0 0.0 0.00 0.84 0.00 95 1006.1
20260507050910 2 346 0.0 0.0 0.00 0.84 0.00 95 1006.1
20260507050546 3 346 0.0 0.0 0.00 0.84 0.00 95 1006.1
20260507050438 3 346 0.0 0.0 0.00 0.84 0.00 95 1006.1
20260507050336 3 346 0.0 0.0 0.00 0.84 0.00 95 1006.1
20260507050229 3 346 0.0 0.0 0.00 0.84 0.00 95 1006.1
20260507045650 3 346 0.0 0.0 0.00 0.84 0.00 95 1006.2
20260507045546 3 346 0.0 0.0 0.00 0.84 0.00 95 1006.1
20260507045442 3 346 0.0 0.0 0.00 0.84 0.00 95 1006.2
20260507045336 3 346 0.0 0.0 0.00 0.84 0.00 95 1006.2
20260507045231 3 346 0.0 0.0 0.00 0.84 0.00 95 1006.1
20260507045126 3 346 0.0 0.0 0.00 0.84 0.00 95 1006.2
20260507044544 3 346 0.0 0.0 0.00 0.84 0.00 95 1006.2
20260507044220 3 346 0.0 0.0 0.00 0.84 0.00 95 1006.1
20260507044114 3 346 0.0 0.0 0.00 0.84 0.00 95 1006.1
20260507044009 3 346 0.0 0.0 0.00 0.84 0.00 95 1006.1
20260507043908 3 346 0.0 0.0 0.00 0.84 0.00 95 1006.2
20260507043544 3 346 0.0 0.0 0.00 0.84 0.00 95 1006.2
20260507043438 3 346 0.0 0.0 0.00 0.84 0.00 95 1006.1
20260507043118 3 346 0.0 0.0 0.00 0.84 0.00 95 1006.2
20260507043011 3 346 0.0 0.0 0.00 0.84 0.00 95 1006.2
20260507042426 3 346 0.0 0.0 0.00 0.84 0.00 95 1006.3
20260507042323 3 346 0.0 0.0 0.00 0.84 0.00 95 1006.3
20260507042216 3 346 0.0 0.0 0.00 0.84 0.00 95 1006.3
20260507042111 3 346 0.0 0.0 0.00 0.84 0.00 95 1006.3
20260507042005 3 346 0.0 0.0 0.00 0.84 0.00 95 1006.3
20260507041900 3 346 0.0 0.0 0.00 0.84 0.00 95 1006.3
20260507041533 3 346 0.0 0.0 0.00 0.84 0.00 95 1006.4
20260507041425 3 346 0.0 0.0 0.00 0.84 0.00 95 1006.4
20260507041323 3 346 0.0 0.0 0.00 0.84 0.00 95 1006.3
20260507041220 3 346 0.0 0.0 0.00 0.84 0.00 95 1006.4
20260507041115 3 346 0.0 0.0 0.00 0.84 0.00 95 1006.3
20260507040532 3 346 0.0 0.0 0.00 0.84 0.00 95 1006.4
20260507040425 3 346 0.0 0.0 0.00 0.84 0.00 95 1006.5
20260507040056 3 346 0.0 0.0 0.00 0.84 0.00 95 1006.6
20260507035954 3 346 0.0 0.0 0.00 0.84 0.84 95 1006.6
20260507035846 3 346 0.0 0.0 0.00 0.84 0.84 95 1006.6
20260507035741 3 346 0.0 0.0 0.00 0.84 0.84 95 1006.6
20260507035415 3 346 0.0 0.0 0.00 0.84 0.84 95 1006.6
20260507035309 3 294 0.0 0.0 0.00 0.84 0.84 95 1006.7
20260507035206 3 294 0.0 0.0 0.00 0.84 0.84 95 1006.7
20260507034841 3 294 0.0 0.0 0.00 0.84 0.84 95 1006.7
20260507034735 3 294 0.0 0.0 0.00 0.84 0.84 95 1006.8
20260507034630 3 294 0.0 0.0 0.00 0.84 0.84 95 1006.8
20260507034523 3 294 0.0 0.0 0.00 0.84 0.84 95 1006.8
20260507034417 3 294 0.0 0.0 0.00 0.84 0.84 95 1006.8
20260507034310 3 294 0.0 0.0 0.00 0.84 0.84 95 1006.8
20260507034207 3 294 0.0 0.0 0.00 0.84 0.84 95 1006.8
20260507034102 3 294 0.0 0.0 0.00 0.84 0.84 95 1006.8
20260507033735 3 294 0.0 0.0 0.00 0.84 0.84 95 1006.9
20260507033632 3 294 0.0 0.0 0.00 0.84 0.84 95 1006.9
20260507033527 3 294 0.0 0.0 0.00 0.84 0.84 95 1006.9
20260507033424 3 294 0.0 0.0 0.00 0.84 0.84 95 1006.9
20260507033318 3 294 0.0 0.0 0.00 0.84 0.84 95 1006.9
20260507033213 3 294 0.0 0.0 0.00 0.84 0.84 95 1006.9
20260507033109 3 294 0.0 0.0 0.00 0.84 0.84 95 1006.9
20260507033001 3 294 0.0 0.0 0.00 0.84 0.84 95 1006.9
20260507032854 3 294 0.0 0.0 0.00 0.84 0.84 95 1006.9
20260507032749 3 294 0.0 0.0 0.00 0.84 0.84 95 1006.9
20260507032642 3 294 0.0 0.0 0.00 0.84 0.84 95 1006.9
20260507032534 3 294 0.0 0.0 0.00 0.84 0.84 95 1006.8
20260507032430 3 294 0.0 0.0 0.00 0.84 0.84 95 1006.8
20260507032327 3 294 0.0 0.0 0.00 0.84 0.84 95 1006.8
20260507032225 3 294 0.0 0.0 0.00 0.84 0.84 95 1006.8
20260507032120 3 294 0.0 0.0 0.00 0.84 0.84 95 1006.8
20260507032014 3 294 0.0 0.0 0.00 0.84 0.84 95 1006.8
20260507031907 3 294 0.0 0.0 0.00 0.84 0.84 95 1006.7
20260507031804 3 294 0.0 0.0 0.00 0.84 0.84 95 1006.8
20260507031659 3 294 0.0 0.0 0.00 0.84 0.84 95 1006.8
20260507031551 3 294 0.0 0.0 0.00 0.84 0.84 95 1006.9
20260507031446 3 294 0.0 0.0 0.00 0.84 0.84 95 1006.9
20260507031342 3 294 0.0 0.0 0.00 0.84 0.84 95 1006.9
20260507031237 3 294 0.0 0.0 0.00 0.84 0.84 95 1006.9
20260507031131 3 294 0.0 0.0 0.00 0.84 0.84 95 1007.0
20260507031026 3 294 0.0 0.0 0.00 0.84 0.84 94 1006.9
20260507030920 3 294 0.0 0.0 0.00 0.84 0.84 94 1006.9
20260507030818 3 294 0.0 0.0 0.00 0.84 0.84 94 1006.9
20260507030236 3 294 0.0 0.0 0.00 0.84 0.84 95 1007.0
20260507025913 4 294 0.0 0.0 0.00 0.84 0.84 95 1006.9
20260507025811 4 294 0.0 0.0 0.00 0.84 0.84 95 1006.9
20260507025223 4 294 0.0 0.0 0.00 0.84 0.84 95 1006.9
20260507025117 4 294 0.0 0.0 0.00 0.84 0.84 95 1006.9
20260507025014 4 294 0.0 0.0 0.00 0.84 0.84 95 1007.0
20260507024909 4 294 0.0 0.0 0.00 0.84 0.84 95 1007.0
20260507024544 4 294 0.0 0.0 0.00 0.84 0.84 95 1007.0
20260507024442 4 294 0.0 0.0 0.00 0.84 0.84 95 1007.0
20260507024116 4 294 0.0 0.0 0.00 0.84 0.84 95 1007.0
20260507024008 4 294 0.0 0.0 0.00 0.84 0.84 95 1007.0
20260507023902 4 294 0.0 0.0 0.00 0.84 0.84 95 1007.0
20260507023540 4 294 0.0 0.0 0.00 0.84 0.84 95 1006.9
20260507022955 4 294 0.0 0.0 0.00 0.84 0.84 94 1007.0
20260507022852 4 294 0.0 0.0 0.00 0.84 0.84 94 1007.0
20260507022746 4 294 0.0 0.0 0.00 0.84 0.84 94 1007.0
20260507022639 4 294 0.0 0.0 0.00 0.84 0.84 94 1007.0
20260507022533 4 294 0.0 0.0 0.00 0.84 0.84 94 1007.0
20260507022430 4 294 0.0 0.0 0.00 0.84 0.84 94 1007.0
20260507022328 4 294 0.0 0.0 0.00 0.84 0.84 94 1007.0
20260507022223 4 294 0.0 0.0 0.00 0.84 0.84 94 1007.0
20260507022121 4 294 0.0 0.0 0.00 0.84 0.84 94 1007.0
20260507021757 4 294 0.0 0.0 0.00 0.84 0.84 94 1006.9
20260507021652 4 294 0.0 0.0 0.00 0.84 0.84 94 1006.9
20260507021329 3 294 0.0 0.0 0.00 0.84 0.84 94 1006.9
20260507021223 3 294 0.0 0.0 0.00 0.84 0.84 94 1006.8
20260507021116 3 294 0.0 0.0 0.00 0.84 0.84 94 1006.8
20260507021010 3 294 0.0 0.0 0.00 0.84 0.84 94 1006.8
20260507020647 3 294 0.0 0.0 0.00 0.84 0.84 94 1006.9
20260507020540 3 294 0.0 0.0 0.00 0.84 0.84 94 1006.8
20260507020435 3 294 0.0 0.0 0.00 0.84 0.84 94 1006.8
20260507020328 3 294 0.0 0.0 0.00 0.84 0.84 94 1006.8
20260507020000 3 294 0.0 0.0 0.00 0.84 0.84 94 1006.8
20260507015857 4 294 0.0 0.0 0.00 0.84 0.84 94 1006.8
20260507015536 4 294 0.0 0.0 0.00 0.84 0.84 94 1006.8
20260507015428 4 294 0.0 0.0 0.00 0.84 0.84 94 1006.8
20260507015322 4 294 0.0 0.0 0.00 0.84 0.84 94 1006.7
20260507014736 4 294 0.0 0.0 0.00 0.84 0.84 94 1006.8
20260507014634 4 294 0.0 0.0 0.00 0.84 0.84 94 1006.9
20260507014530 4 294 0.0 0.0 0.00 0.84 0.84 94 1006.8
20260507014428 4 294 0.0 0.0 0.00 0.84 0.84 94 1006.8
20260507014322 4 294 0.0 0.0 0.00 0.84 0.84 94 1006.9
20260507014219 4 294 0.0 0.0 0.00 0.84 0.84 94 1006.8
20260507014113 4 294 0.0 0.0 0.00 0.84 0.84 94 1006.8
20260507014006 4 294 0.0 0.0 0.00 0.84 0.84 94 1006.8
20260507013900 4 294 0.0 0.0 0.00 0.84 0.84 94 1006.8
20260507013532 4 294 0.0 0.0 0.00 0.84 0.84 94 1006.8
20260507013428 4 294 0.0 0.0 0.00 0.84 0.84 94 1006.8
20260507013101 4 294 0.0 0.0 0.00 0.84 0.84 94 1006.9
20260507012955 4 294 0.0 0.0 0.00 0.84 0.84 94 1006.9
20260507012406 4 294 0.0 0.0 0.00 0.84 0.84 94 1006.8
20260507012259 4 294 0.0 0.0 0.00 0.84 0.84 94 1006.9
20260507011717 4 294 0.0 0.0 0.00 0.84 0.84 94 1006.9
20260507011352 4 294 0.0 0.0 0.00 0.86 0.84 94 1007.0
20260507011246 4 294 0.0 0.0 0.00 0.86 0.84 94 1007.0
20260507011143 4 294 0.0 0.0 0.00 0.86 0.84 94 1007.0
20260507011036 4 294 0.0 0.0 0.00 0.86 0.84 94 1007.1
20260507010933 4 294 0.0 0.0 0.00 0.86 0.84 94 1007.1
20260507010829 4 294 0.0 0.0 0.00 0.86 0.84 93 1007.2
20260507010726 4 294 0.0 0.0 0.00 0.86 0.84 93 1007.1
20260507010359 4 294 0.0 0.0 0.00 0.86 0.84 93 1007.1
20260507010257 4 294 0.0 0.0 0.00 0.86 0.84 93 1007.1
20260507010150 4 294 0.0 0.0 0.00 0.86 0.84 93 1007.0
20260507010046 4 294 0.0 0.0 0.00 0.86 0.84 93 1007.0
20260507005943 4 294 0.0 0.0 0.00 0.86 0.84 93 1007.0
20260507005836 4 294 0.0 0.0 0.00 0.86 0.84 93 1006.9
20260507005732 4 294 0.0 0.0 0.00 0.86 0.84 93 1007.0
20260507005151 4 294 0.0 0.0 0.00 0.86 0.84 93 1007.0
20260507005044 4 294 0.0 0.0 0.00 0.86 0.84 93 1007.1
20260507004938 4 294 0.0 0.0 0.00 0.86 0.84 93 1007.1
20260507004140 5 294 0.0 0.0 0.00 0.89 0.84 93 1007.1
20260507004036 5 294 0.0 0.0 0.00 0.89 0.84 93 1007.1
20260507003931 5 294 0.0 0.0 0.00 0.89 0.84 93 1007.0
20260507003828 5 294 0.0 0.0 0.00 0.89 0.84 93 1007.1
20260507003724 5 294 0.0 0.0 0.00 0.89 0.84 93 1007.0
20260507003618 5 294 0.0 0.0 0.00 0.89 0.84 93 1007.0
20260507003512 5 294 0.0 0.0 0.00 0.89 0.84 93 1007.0
20260507003150 5 294 0.0 0.0 0.00 0.89 0.84 93 1006.9
20260507002826 5 294 0.0 0.0 0.00 0.89 0.84 93 1007.0
20260507002720 5 294 0.0 0.0 0.00 0.89 0.84 93 1007.1
20260507002618 5 294 0.0 0.0 0.00 0.89 0.84 93 1007.0
20260507002257 5 294 0.0 0.0 0.00 0.89 0.84 93 1006.9
20260507001934 5 294 0.0 0.0 0.00 0.89 0.84 92 1006.9
20260507001829 5 294 0.0 0.0 0.00 0.89 0.84 93 1006.8
20260507001722 5 294 0.0 0.0 0.00 0.89 0.84 93 1006.8
20260507001618 5 294 0.0 0.0 0.00 0.89 0.84 93 1006.9
20260507001514 5 294 0.0 0.0 0.00 0.89 0.84 93 1006.9
20260507001410 5 294 0.0 0.0 0.00 0.89 0.84 93 1006.9
20260507001302 5 294 0.0 0.0 0.00 0.89 0.84 93 1006.9
20260507001156 6 294 0.0 0.0 0.00 0.89 0.84 92 1006.9
20260507001050 6 294 0.0 0.0 0.00 0.89 0.84 92 1006.9
20260507000944 6 294 0.0 0.0 0.00 0.89 0.84 92 1006.9
20260507000617 6 294 0.0 0.0 0.00 0.89 0.84 92 1007.0
20260507000510 6 294 0.0 0.0 0.00 0.89 0.84 93 1007.0
20260507000405 6 294 0.0 0.0 0.00 0.89 0.84 92 1007.0
20260507000300 6 294 0.0 0.0 0.00 0.89 0.84 92 1007.0
20260507000157 6 294 0.0 0.0 0.00 0.89 0.84 92 1007.0
20260507000053 6 294 0.0 0.0 0.00 0.89 0.84 92 1007.0
20260506235951 6 294 0.0 0.0 0.00 0.89 0.84 92 1007.0
20260506235844 6 294 0.0 0.0 0.00 0.89 0.84 92 1007.0
20260506235520 6 294 0.0 0.0 0.00 0.89 0.84 92 1007.0
20260506235413 6 294 0.0 0.0 0.00 0.89 0.84 92 1007.0
20260506235310 6 294 0.0 0.0 0.00 0.89 0.84 92 1007.0
20260506235204 6 294 0.0 0.0 0.00 0.89 0.84 92 1007.0
20260506235058 6 294 0.0 0.0 0.00 0.89 0.84 92 1007.0
20260506234951 6 294 0.0 0.0 0.00 0.89 0.84 92 1007.0
20260506234844 6 294 0.0 0.0 0.00 0.89 0.84 92 1007.0
20260506234742 6 294 0.0 0.0 0.00 0.89 0.84 92 1007.0
20260506234640 6 294 0.0 0.0 0.00 0.91 0.84 92 1007.0
20260506234536 6 294 0.0 0.0 0.00 0.91 0.84 92 1006.9
20260506234434 6 294 0.0 0.0 0.00 0.94 0.84 92 1007.0
20260506234329 6 294 0.0 0.0 0.00 0.94 0.84 92 1007.0
20260506234222 6 294 0.0 0.0 0.00 0.94 0.84 92 1007.0
20260506234116 6 294 0.0 0.0 0.00 0.94 0.84 92 1007.0
20260506234013 6 294 0.0 0.0 0.00 0.94 0.84 92 1007.0
20260506233647 6 294 0.0 0.0 0.00 0.94 0.84 92 1006.9
20260506233542 6 294 0.0 0.0 0.00 0.94 0.84 92 1006.9
20260506233438 6 294 0.0 0.0 0.00 0.94 0.84 92 1006.9
20260506233335 6 294 0.0 0.0 0.00 0.94 0.84 92 1007.0
20260506233231 6 294 0.0 0.0 0.00 0.94 0.84 92 1007.0
20260506233123 6 294 0.0 0.0 0.00 0.94 0.84 92 1007.0
20260506232801 6 294 0.0 0.0 0.00 0.97 0.84 91 1006.9
20260506232659 6 294 0.0 0.0 0.00 0.97 0.84 91 1006.8
20260506232555 6 294 0.0 0.0 0.00 0.97 0.84 91 1006.7
20260506232449 6 294 0.0 0.0 0.00 0.97 0.84 91 1006.7
20260506232343 6 294 0.0 0.0 0.00 0.97 0.84 91 1006.7
20260506232241 6 294 0.0 0.0 0.00 0.97 0.84 91 1006.7
20260506232134 6 294 0.0 0.0 0.00 0.97 0.84 91 1006.7
20260506232031 6 294 0.0 0.0 0.00 0.97 0.84 91 1006.8
20260506231929 6 294 0.0 0.0 0.00 0.97 0.84 91 1006.7
20260506231824 6 294 0.0 0.0 0.00 0.97 0.84 91 1006.7
20260506231720 6 294 0.0 0.0 0.00 0.97 0.84 91 1006.7
20260506231614 6 294 0.0 0.0 0.00 0.97 0.84 91 1006.7
20260506231249 6 294 0.0 0.0 0.00 0.97 0.84 91 1006.7
20260506231143 6 294 0.0 0.0 0.00 0.97 0.84 91 1006.7
20260506231039 6 294 0.0 0.0 0.00 0.97 0.84 91 1006.6
20260506230935 6 294 0.0 0.0 0.00 0.97 0.84 91 1006.6
20260506230831 6 294 0.0 0.0 0.00 0.97 0.84 91 1006.6
20260506230725 6 294 0.0 0.0 0.00 0.97 0.84 91 1006.6
20260506230358 6 294 0.0 0.0 0.00 0.97 0.84 91 1006.7
20260506230256 6 294 0.0 0.0 0.00 0.97 0.84 91 1006.6
20260506230150 6 294 0.0 0.0 0.00 0.97 0.84 91 1006.7
20260506230045 6 294 0.0 0.0 0.00 0.97 0.84 91 1006.7
20260506225937 6 294 0.0 0.0 0.00 0.97 0.84 91 1006.6
20260506225353 6 294 0.0 0.0 0.00 0.97 0.84 91 1006.8
20260506225248 6 294 0.0 0.0 0.00 0.97 0.84 91 1006.8
20260506225146 6 294 0.0 0.0 0.00 0.97 0.84 91 1006.8
20260506225040 6 294 0.0 0.0 0.00 0.97 0.84 91 1006.8
20260506224934 6 294 0.0 0.0 0.00 0.97 0.84 91 1006.8
20260506224830 6 294 0.0 0.0 0.00 0.97 0.84 91 1006.7
20260506224724 6 294 0.0 0.0 0.00 0.97 0.84 91 1006.8
20260506224618 6 294 0.0 0.0 0.00 0.97 0.84 91 1006.7
20260506224514 6 294 0.0 0.0 0.00 0.97 0.84 91 1006.8
20260506224410 6 294 0.0 0.0 0.00 0.97 0.84 91 1006.8
20260506224044 6 294 0.0 0.0 0.00 0.97 0.84 91 1006.9
20260506223941 6 294 0.0 0.0 0.00 0.97 0.84 91 1007.0
20260506223838 6 294 0.0 0.0 0.00 0.97 0.84 91 1007.0
20260506223734 6 294 0.0 0.0 0.00 0.97 0.84 91 1006.9
20260506223630 6 294 0.0 0.0 0.00 0.97 0.84 91 1007.0
20260506223524 6 294 0.0 0.0 0.00 0.97 0.84 91 1007.0
20260506223422 6 294 0.0 0.0 0.00 0.97 0.84 91 1007.0
20260506223316 6 294 0.0 0.0 0.00 0.97 0.84 91 1007.0
20260506223213 6 294 0.0 0.0 0.00 0.97 0.84 91 1007.0
20260506223107 6 294 0.0 0.0 0.00 0.97 0.84 91 1006.9
20260506223001 6 263 0.0 0.0 0.00 0.97 0.84 91 1006.9
20260506222854 6 296 0.0 0.0 0.00 0.97 0.84 91 1006.9
20260506222747 6 296 0.0 0.0 0.00 0.97 0.84 91 1006.8
20260506222642 6 296 0.0 0.0 0.00 0.97 0.84 91 1006.8
20260506222535 6 296 0.0 0.0 0.00 0.97 0.84 91 1006.8
20260506221731 6 296 0.0 0.0 0.00 0.97 0.84 91 1006.9
20260506221629 6 296 0.0 0.0 0.00 0.97 0.84 91 1006.9
20260506221526 6 296 0.0 0.0 0.00 0.97 0.84 91 1006.9
20260506221424 6 296 0.0 0.0 0.00 0.97 0.84 91 1006.9
20260506221322 6 296 0.0 0.0 0.00 0.97 0.84 91 1006.8
20260506221216 6 296 0.0 0.0 0.00 0.97 0.84 91 1006.8
20260506221110 6 296 0.0 0.0 0.00 0.97 0.84 91 1006.8
20260506221008 6 296 0.0 0.0 0.00 0.97 0.84 91 1006.8
20260506220901 6 296 0.0 0.0 0.00 0.97 0.84 91 1006.9
20260506220800 6 296 0.0 0.0 0.00 0.97 0.84 91 1007.0
20260506220655 6 296 0.0 0.0 0.00 0.97 0.84 91 1007.0
20260506220549 6 296 0.0 0.0 0.00 0.97 0.84 91 1007.0
20260506220442 6 296 0.0 0.0 0.00 0.97 0.84 91 1007.0
20260506220335 6 296 0.0 0.0 0.00 0.97 0.84 91 1007.0
20260506220227 6 296 0.0 0.0 0.00 0.97 0.84 91 1007.0
20260506220121 6 296 0.0 0.0 0.00 0.97 0.84 91 1007.0
20260506220015 6 296 0.0 0.0 0.00 0.97 0.84 91 1007.0
20260506215651 6 298 0.0 0.0 0.00 0.97 0.84 91 1007.0
20260506215545 6 298 0.0 0.0 0.00 0.97 0.84 91 1007.0
20260506215441 6 294 0.0 0.0 0.00 0.97 0.84 91 1007.0
20260506215334 6 302 0.0 0.0 0.00 0.97 0.84 91 1007.0
20260506215230 6 302 0.0 0.0 0.00 0.97 0.84 91 1007.0
20260506215125 6 267 0.0 0.0 0.00 0.97 0.84 91 1007.0
20260506215018 6 267 0.0 3.2 0.00 0.97 0.84 91 1007.0
20260506214437 6 281 0.0 0.0 0.00 0.99 0.84 91 1006.9
20260506214335 6 281 0.0 0.0 0.00 0.99 0.84 91 1006.9
20260506214230 6 279 0.0 0.0 0.00 0.99 0.84 91 1006.9
20260506214126 6 309 0.0 3.2 0.00 0.99 0.84 91 1007.0
20260506214024 6 279 0.0 3.2 0.00 0.99 0.84 91 1007.0
20260506213922 6 315 0.0 0.0 0.00 0.99 0.84 91 1007.0
20260506213815 6 300 0.0 0.0 0.00 0.99 0.84 91 1006.9
20260506213708 6 280 0.0 0.0 0.00 0.99 0.84 91 1007.0
20260506213603 6 280 0.0 0.0 0.00 0.99 0.84 91 1007.0
20260506213238 6 311 0.0 0.0 0.00 0.99 0.84 91 1007.0
20260506213133 7 278 0.0 0.0 0.00 0.99 0.84 91 1007.0
20260506213031 7 302 0.0 0.0 0.00 0.99 0.84 91 1007.0
20260506212926 7 302 0.0 0.0 0.00 0.99 0.84 91 1007.1
20260506212822 7 272 0.0 0.0 0.00 0.99 0.84 91 1007.0
20260506212457 7 272 0.0 0.0 0.00 1.02 0.84 91 1007.1
20260506212350 7 272 0.0 0.0 0.00 1.02 0.84 91 1007.1
20260506212244 7 272 0.0 0.0 0.00 1.02 0.84 92 1007.1
20260506212141 7 272 0.0 0.0 0.00 1.02 0.84 92 1007.1
20260506212034 7 272 0.0 0.0 0.00 1.02 0.84 92 1007.1
20260506211709 6 272 0.0 0.0 0.00 1.02 0.84 91 1007.1
20260506211603 6 272 0.0 0.0 0.00 1.02 0.84 91 1007.1
20260506211240 6 300 0.0 0.0 0.00 1.02 0.84 91 1007.1
20260506211132 6 300 0.0 0.0 0.00 1.02 0.84 91 1007.0
20260506211025 6 300 0.0 0.0 0.00 1.02 0.84 91 1007.0
20260506210919 6 300 0.0 0.0 0.00 1.02 0.84 91 1007.0
20260506210815 6 300 0.0 0.0 0.00 1.02 0.84 91 1006.9
20260506210711 6 300 0.0 0.0 0.00 1.02 0.84 91 1007.0
20260506210603 6 300 0.0 0.0 0.00 1.02 0.84 91 1007.0
20260506210501 6 300 0.0 0.0 0.00 1.02 0.84 91 1007.0
20260506210357 6 300 0.0 0.0 0.00 1.02 0.84 91 1006.9
20260506210252 6 300 0.0 0.0 0.00 1.02 0.84 91 1006.8
20260506210147 6 300 0.0 0.0 0.00 1.02 0.84 91 1006.8
20260506205822 6 300 0.0 0.0 0.00 1.04 0.84 91 1006.8
20260506205455 6 298 0.0 0.0 0.00 1.22 0.84 91 1007.0
20260506205134 6 298 0.0 0.0 0.00 1.35 0.84 91 1006.9
20260506205027 6 298 0.0 0.0 0.00 1.35 0.84 91 1006.9
20260506204922 6 298 0.0 0.0 0.00 1.35 0.84 91 1006.9
20260506204819 6 298 0.0 0.0 0.00 1.35 0.84 91 1006.9
20260506204716 6 298 0.0 0.0 0.00 1.35 0.84 91 1006.8
20260506204615 6 298 0.0 0.0 0.00 1.35 0.84 91 1006.9
20260506204510 6 298 0.0 0.0 0.00 1.35 0.84 91 1006.9
20260506204404 6 298 0.0 0.0 0.00 1.35 0.84 91 1007.1
20260506204259 6 298 0.0 0.0 0.00 1.35 0.84 91 1007.1
20260506204156 6 298 0.0 0.0 0.00 1.35 0.84 91 1007.1
20260506204053 6 319 0.0 0.0 0.00 1.35 0.84 91 1007.1
20260506203946 6 318 0.0 0.0 0.00 1.35 0.84 91 1007.2
20260506203839 6 319 0.0 0.0 0.00 1.35 0.84 91 1007.2
20260506203735 6 319 0.0 0.0 0.00 1.35 0.84 91 1007.2
20260506203631 6 5 0.0 0.0 0.00 1.35 0.84 91 1007.2
20260506203529 6 5 0.0 0.0 0.00 1.35 0.84 91 1007.2
20260506203428 6 5 0.0 0.0 0.00 1.35 0.84 91 1007.2
20260506203326 6 5 0.0 0.0 0.00 1.35 0.84 91 1007.2
20260506203223 6 277 0.0 0.0 0.00 1.35 0.84 91 1007.2
20260506203117 6 277 0.0 0.0 0.00 1.35 0.84 91 1007.2
20260506203014 6 277 0.0 0.0 0.00 1.35 0.84 91 1007.3
20260506202911 6 277 0.0 0.0 0.00 1.35 0.84 91 1007.2
20260506202806 6 277 0.0 0.0 0.00 1.35 0.84 91 1007.1
20260506202440 6 299 0.0 0.0 0.00 1.35 0.84 91 1007.2
20260506202334 6 302 0.0 0.0 0.00 1.35 0.84 91 1007.2
20260506202227 6 298 0.0 0.0 0.00 1.35 0.84 91 1007.3
20260506201903 6 291 0.0 0.0 0.00 1.35 0.84 91 1007.3
20260506201758 6 291 0.0 0.0 0.00 1.35 0.84 91 1007.4
20260506201652 6 291 0.0 0.0 0.00 1.35 0.84 91 1007.3
20260506201326 6 287 0.0 0.0 0.00 1.35 0.84 91 1007.2
20260506201222 6 287 0.0 0.0 0.00 1.35 0.84 91 1007.2
20260506201115 6 287 0.0 0.0 0.00 1.35 0.84 91 1007.3
20260506201011 6 287 0.0 0.0 0.00 1.35 0.84 91 1007.2
20260506200905 6 287 0.0 0.0 0.00 1.35 0.84 91 1007.2
20260506200759 6 287 0.0 0.0 0.00 1.35 0.84 91 1007.2
20260506200652 6 287 0.0 0.0 0.00 1.35 0.84 91 1007.2
20260506200549 6 287 0.0 0.0 0.00 1.35 0.84 91 1007.2
20260506200226 6 287 0.0 0.0 0.00 1.35 0.84 91 1007.3
20260506195645 6 287 0.0 0.0 0.00 1.35 0.84 91 1007.2
20260506195058 6 269 0.0 0.0 0.00 1.35 0.84 91 1007.3
20260506194952 6 269 0.0 0.0 0.00 1.35 0.84 91 1007.3
20260506194845 6 269 0.0 0.0 0.00 1.35 0.84 90 1007.3
20260506194740 6 269 0.0 0.0 0.00 1.35 0.84 90 1007.3
20260506194632 6 269 0.0 0.0 0.00 1.35 0.84 90 1007.2
20260506194529 6 269 0.0 0.0 0.00 1.35 0.84 90 1007.2
20260506194424 6 269 0.0 0.0 0.00 1.35 0.84 90 1007.2
20260506194317 6 269 0.0 0.0 0.00 1.35 0.84 90 1007.2
20260506194213 6 269 0.0 0.0 0.00 1.35 0.84 90 1007.2
20260506193846 6 269 0.0 0.0 0.00 1.35 0.84 90 1007.2
20260506193741 6 269 0.0 0.0 0.00 1.35 0.84 91 1007.3
20260506193202 6 269 0.0 0.0 0.00 1.35 0.84 90 1007.5
20260506193054 6 269 0.0 0.0 0.00 1.35 0.84 90 1007.5
20260506192950 6 269 0.0 0.0 0.00 1.35 0.84 90 1007.5
20260506192844 6 269 0.0 0.0 0.00 1.35 0.84 90 1007.5
20260506192741 6 269 0.0 0.0 0.00 1.35 0.84 90 1007.5
20260506192634 6 268 0.0 0.0 0.00 1.35 0.84 91 1007.5
20260506192529 6 268 0.0 0.0 0.00 1.35 0.84 91 1007.5
20260506192424 6 281 0.0 0.0 0.00 1.35 0.84 91 1007.5
20260506192319 6 71 0.0 0.0 0.00 1.35 0.84 90 1007.5
20260506191956 6 71 0.0 0.0 0.00 1.35 0.84 90 1007.4
20260506191853 6 71 0.0 0.0 0.00 1.35 0.84 90 1007.4
20260506191745 6 71 0.0 0.0 0.00 1.35 0.84 90 1007.4
20260506191638 6 71 0.0 0.0 0.00 1.35 0.84 90 1007.4
20260506191535 6 71 0.0 0.0 0.00 1.35 0.84 90 1007.4
20260506191432 6 71 0.0 0.0 0.00 1.35 0.84 90 1007.4
20260506191327 6 71 0.0 0.0 0.00 1.35 0.84 90 1007.4
20260506191224 6 71 0.0 0.0 0.00 1.35 0.84 90 1007.3
20260506191122 6 71 0.0 0.0 0.00 1.35 0.84 90 1007.3
20260506191017 6 71 0.0 0.0 0.00 1.35 0.84 90 1007.3
20260506190914 6 71 0.0 0.0 0.00 1.35 0.84 91 1007.4
20260506190812 6 71 0.0 0.0 0.00 1.35 0.84 91 1007.4
20260506190705 6 71 0.0 0.0 0.00 1.35 0.84 91 1007.4
20260506190559 6 71 0.0 0.0 0.00 1.35 0.84 91 1007.4
20260506190455 6 71 0.0 0.0 0.00 1.35 0.84 91 1007.4
20260506190353 6 71 0.0 0.0 0.00 1.35 0.84 91 1007.4
20260506190247 6 71 0.0 0.0 0.00 1.35 0.84 90 1007.4
20260506190141 6 71 0.0 0.0 0.00 1.35 0.84 90 1007.4
20260506190034 6 71 0.0 0.0 0.00 1.35 0.84 91 1007.5
20260506185928 6 71 0.0 0.0 0.00 1.35 0.84 91 1007.5
20260506185605 6 71 0.0 0.0 0.00 1.35 0.84 91 1007.5
20260506185500 6 71 0.0 0.0 0.00 1.35 0.84 91 1007.5
20260506185358 6 71 0.0 0.0 0.00 1.35 0.84 90 1007.5
20260506185252 6 71 0.0 0.0 0.00 1.35 0.84 90 1007.6
20260506185146 6 71 0.0 0.0 0.00 1.35 0.84 91 1007.5
20260506185040 6 71 0.0 0.0 0.00 1.35 0.84 91 1007.6
20260506184937 6 71 0.0 0.0 0.00 1.35 0.84 91 1007.6
20260506184835 6 71 0.0 0.0 0.00 1.35 0.84 91 1007.6
20260506184510 6 71 0.0 0.0 0.00 1.35 0.84 91 1007.7
20260506184404 6 71 0.0 0.0 0.00 1.35 0.84 91 1007.6
20260506184257 6 80 0.0 0.0 0.00 1.35 0.84 91 1007.6
20260506184152 6 80 0.0 0.0 0.00 1.35 0.84 91 1007.6
20260506184047 6 80 0.0 0.0 0.00 1.35 0.84 91 1007.5
20260506183943 6 80 0.0 0.0 0.00 1.35 0.84 91 1007.5
20260506183840 6 55 0.0 0.0 0.00 1.35 0.84 92 1007.5
20260506183515 6 53 0.0 0.0 0.00 1.35 0.84 91 1007.6
20260506183408 6 53 0.0 0.0 0.00 1.35 0.84 91 1007.6
20260506183301 6 53 0.0 0.0 0.00 1.35 0.84 91 1007.6
20260506183155 6 53 0.0 0.0 0.00 1.35 0.84 91 1007.6
20260506183048 6 53 0.0 0.0 0.00 1.35 0.84 91 1007.5
20260506182940 6 53 0.0 0.0 0.00 1.35 0.84 91 1007.6
20260506182834 6 53 0.0 0.0 0.00 1.35 0.84 91 1007.6
20260506182726 6 53 0.0 0.0 0.00 1.35 0.84 92 1007.6
20260506182620 6 74 0.0 0.0 0.00 1.35 0.84 92 1007.7
20260506182515 6 74 0.0 0.0 0.00 1.35 0.84 92 1007.7
20260506182411 6 75 0.0 0.0 0.00 1.35 0.84 92 1007.7
20260506182308 6 75 0.0 0.0 0.00 1.35 0.84 92 1007.6
20260506182206 6 75 0.0 0.0 0.00 1.35 0.84 92 1007.6
20260506182103 6 75 0.0 0.0 0.00 1.35 0.84 92 1007.6
20260506181956 5 75 0.0 0.0 0.00 1.35 0.84 91 1007.7
20260506181849 5 75 0.0 0.0 0.00 1.35 0.84 91 1007.7
20260506181743 6 75 0.0 0.0 0.00 1.35 0.84 92 1007.7
20260506181155 6 75 0.0 0.0 0.00 1.35 0.84 92 1007.7
20260506181053 5 75 0.0 0.0 0.00 1.35 0.84 92 1007.7
20260506180948 5 75 0.0 0.0 0.00 1.35 0.84 92 1007.7
20260506180846 5 75 0.0 0.0 0.00 1.32 0.84 91 1007.7
20260506180742 5 75 0.0 0.0 0.00 1.32 0.81 91 1007.7
20260506180636 5 75 0.0 0.0 0.08 1.32 0.81 92 1007.8
20260506180530 5 136 0.0 0.0 0.08 1.32 0.81 91 1007.8
20260506180426 5 136 0.0 0.0 0.08 1.32 0.81 91 1007.7
20260506180319 5 136 0.0 0.0 0.08 1.32 0.81 91 1007.8
20260506180214 5 141 0.0 0.0 0.08 1.32 0.81 92 1007.8
20260506180112 5 257 0.0 0.0 0.08 1.32 0.81 92 1007.8
20260506180006 5 257 0.0 0.0 0.10 1.32 0.81 92 1007.8
20260506175902 5 257 0.0 0.0 0.13 1.32 0.81 92 1007.9
20260506175800 5 257 0.0 0.0 0.13 1.32 0.81 92 1007.9
20260506175659 5 257 0.0 0.0 0.13 1.32 0.81 92 1007.9
20260506175555 5 257 0.0 0.0 0.13 1.32 0.81 92 1008.0
20260506175452 6 257 0.0 0.0 0.13 1.32 0.81 92 1008.0
20260506175129 6 257 0.0 0.0 0.13 1.30 0.81 92 1008.0
20260506175023 6 257 0.0 0.0 0.13 1.30 0.79 92 1008.1
20260506174918 6 257 0.0 0.0 0.08 1.30 0.79 92 1008.1
20260506174812 6 257 0.0 0.0 0.08 1.30 0.79 92 1008.1
20260506174710 6 257 0.0 0.0 0.08 1.30 0.79 92 1008.1
20260506174603 5 257 0.0 0.0 0.08 1.30 0.79 92 1008.1
20260506174241 5 257 0.0 0.0 0.08 1.30 0.79 92 1008.1
20260506174134 5 257 0.0 0.0 0.08 1.30 0.76 92 1008.2
20260506174030 5 257 0.0 0.0 0.08 1.30 0.76 92 1008.2
20260506173705 5 257 0.0 0.0 0.08 1.32 0.76 92 1008.2
20260506173601 5 257 0.0 0.0 0.08 1.35 0.76 92 1008.3
20260506173457 5 257 0.0 0.0 0.08 1.35 0.76 92 1008.2
20260506173352 5 257 0.0 0.0 0.08 1.35 0.76 92 1008.2
20260506173248 5 257 0.0 0.0 0.08 1.37 0.76 92 1008.2
20260506172928 5 257 0.0 0.0 0.08 1.40 0.76 92 1008.2
20260506172602 5 257 0.0 0.0 0.08 1.37 0.74 92 1008.2
20260506172459 5 257 0.0 0.0 0.08 1.37 0.74 92 1008.3
20260506172355 5 257 0.0 0.0 0.08 1.37 0.74 92 1008.2
20260506172249 5 257 0.0 0.0 0.08 1.37 0.74 92 1008.2
20260506172143 5 257 0.0 0.0 0.08 1.37 0.74 92 1008.2
20260506171818 5 257 0.0 0.0 0.08 1.37 0.74 92 1008.4
20260506171711 5 257 0.0 0.0 0.08 1.37 0.74 92 1008.3
20260506171608 5 257 0.0 0.0 0.08 1.37 0.74 92 1008.4
20260506171505 5 257 0.0 0.0 0.10 1.37 0.74 92 1008.4
20260506171359 5 257 0.0 0.0 0.13 1.40 0.74 92 1008.4
20260506171031 5 257 0.0 0.0 0.13 1.42 0.74 92 1008.4
20260506170924 5 257 0.0 0.0 0.13 1.42 0.74 92 1008.4
20260506170821 5 257 0.0 0.0 0.13 1.45 0.74 92 1008.4
20260506170234 5 257 0.0 0.0 0.08 1.50 0.71 92 1008.4
20260506170126 5 257 0.0 0.0 0.08 1.50 0.71 92 1008.4
20260506170019 5 257 0.0 0.0 0.08 1.52 0.71 92 1008.4
20260506165916 5 257 0.0 0.0 0.08 1.52 0.71 92 1008.4
20260506165811 5 257 0.0 0.0 0.08 1.52 0.71 92 1008.4
20260506165449 5 257 0.0 0.0 0.08 1.63 0.69 92 1008.5
20260506165342 5 257 0.0 0.0 0.08 1.63 0.69 93 1008.5
20260506165234 5 257 0.0 0.0 0.10 1.63 0.69 93 1008.5
20260506164911 5 257 0.0 0.0 0.18 1.65 0.69 93 1008.5
20260506164806 5 257 0.0 0.0 0.18 1.65 0.69 93 1008.5
20260506164701 5 257 0.0 0.0 0.18 1.65 0.69 93 1008.5
20260506164338 5 257 0.0 0.0 0.18 1.68 0.69 93 1008.6
20260506164231 5 257 0.0 0.0 0.18 1.68 0.69 93 1008.6
20260506164127 5 257 0.0 0.0 0.13 1.68 0.66 93 1008.5
20260506164023 5 257 0.0 0.0 0.13 1.68 0.66 93 1008.6
20260506163918 5 257 0.0 0.0 0.13 1.68 0.66 93 1008.6
20260506163812 5 257 0.0 0.0 0.13 1.70 0.66 93 1008.6
20260506163446 5 257 0.0 0.0 0.15 1.70 0.64 93 1008.6
20260506163343 5 257 0.0 0.0 0.18 1.70 0.64 93 1008.6
20260506163238 5 257 0.0 0.0 0.18 1.70 0.64 93 1008.6
20260506163136 5 257 0.0 0.0 0.18 1.73 0.64 93 1008.7
20260506162808 5 257 0.0 0.0 0.18 1.70 0.64 93 1008.8
20260506162705 5 257 0.0 0.0 0.18 1.73 0.64 93 1008.7
20260506162602 5 257 0.0 0.0 0.13 1.73 0.64 93 1008.8
20260506162458 5 216 0.0 0.0 0.13 1.73 0.64 93 1008.8
20260506162134 5 216 0.0 0.0 0.13 1.70 0.64 93 1008.8
20260506161809 5 216 0.0 0.0 0.10 1.70 0.61 93 1008.8
20260506161702 5 216 0.0 0.0 0.10 1.70 0.61 93 1008.8
20260506161559 5 216 0.0 0.0 0.10 1.70 0.61 93 1008.8
20260506161454 5 216 0.0 0.0 0.10 1.70 0.61 93 1008.8
20260506161352 5 216 0.0 0.0 0.10 1.68 0.61 93 1008.8
20260506161032 5 216 0.0 0.0 0.13 1.68 0.58 93 1008.8
20260506160930 5 216 0.0 0.0 0.13 1.68 0.58 93 1008.8
20260506160828 5 216 0.0 0.0 0.13 1.68 0.58 93 1008.8
20260506160723 5 216 0.0 0.0 0.13 1.68 0.58 93 1008.8
20260506160618 5 216 0.0 0.0 0.13 1.68 0.58 93 1008.9
20260506160513 5 216 0.0 0.0 0.13 1.68 0.58 93 1008.9
20260506160407 5 216 0.0 0.0 0.13 1.68 0.58 92 1008.9
20260506160305 5 216 0.0 0.0 0.13 1.68 0.58 92 1008.9
20260506160201 5 216 0.0 0.0 0.15 1.68 0.56 92 1008.9
20260506160058 5 219 0.0 0.0 0.18 1.68 0.56 92 1008.9
20260506155955 5 167 0.0 0.0 0.20 1.68 0.56 92 1008.9
20260506155849 5 205 0.0 0.0 0.23 1.68 0.56 92 1009.0
20260506155743 5 205 0.0 0.0 0.23 1.68 0.56 92 1009.0
20260506154455 5 185 0.0 0.0 0.25 1.63 0.53 92 1009.1
20260506154350 5 185 0.0 0.0 0.25 1.60 0.53 92 1009.1
20260506154244 5 185 0.0 0.0 0.23 1.60 0.51 92 1009.2
20260506154141 6 223 0.0 0.0 0.23 1.60 0.51 92 1009.1
20260506154035 6 232 0.0 0.0 0.23 1.60 0.51 92 1009.2
20260506153933 6 217 0.0 0.0 0.23 1.57 0.51 92 1009.2
20260506153826 6 213 0.0 0.0 0.23 1.57 0.48 92 1009.2
20260506153724 6 201 0.0 0.0 0.28 1.57 0.48 92 1009.2
20260506153616 6 201 0.0 0.0 0.28 1.57 0.48 93 1009.2
20260506153511 6 201 0.0 0.0 0.28 1.57 0.48 92 1009.2
20260506153407 6 201 0.0 0.0 0.28 1.57 0.48 92 1009.2
20260506153303 6 201 0.0 0.0 0.20 1.57 0.46 92 1009.2
20260506153158 6 201 0.0 0.0 0.20 1.57 0.46 92 1009.2
20260506153052 6 201 0.0 0.0 0.20 1.55 0.46 92 1009.3
20260506152947 6 201 0.0 0.0 0.20 1.55 0.46 92 1009.2
20260506152842 6 201 0.0 0.0 0.23 1.55 0.46 92 1009.1
20260506152738 6 201 0.0 0.0 0.28 1.55 0.46 92 1009.2
20260506152631 6 201 0.0 0.0 0.28 1.55 0.46 92 1009.1
20260506152527 6 201 0.0 0.0 0.28 1.52 0.46 92 1009.2
20260506152423 6 201 0.0 0.0 0.28 1.52 0.46 92 1009.2
20260506152316 6 201 0.0 0.0 0.18 1.52 0.43 92 1009.3
20260506152210 6 201 0.0 0.0 0.18 1.52 0.43 92 1009.3
20260506152107 6 201 0.0 0.0 0.18 1.50 0.43 92 1009.3
20260506151742 6 190 0.0 0.0 0.28 1.50 0.41 92 1009.4
20260506151638 6 267 0.0 0.0 0.28 1.50 0.41 93 1009.4
20260506151532 6 267 0.0 0.0 0.28 1.50 0.41 93 1009.4
20260506151212 6 267 0.0 0.0 0.18 1.50 0.38 93 1009.4
20260506151107 6 267 0.0 0.0 0.18 1.47 0.38 92 1009.3
20260506151006 6 267 0.0 0.0 0.18 1.47 0.36 92 1009.3
20260506150645 6 282 0.0 0.0 0.28 1.47 0.36 92 1009.2
20260506150537 6 260 0.0 0.0 0.28 1.47 0.36 92 1009.2
20260506150432 6 260 0.0 0.0 0.28 1.45 0.36 92 1009.2
20260506150330 6 260 0.0 0.0 0.28 1.45 0.36 92 1009.1
20260506150223 6 260 0.0 0.0 0.10 1.45 0.36 92 1009.1
20260506150118 6 260 0.0 0.0 0.10 1.45 0.36 92 1009.1
20260506150012 6 274 0.0 0.0 0.10 1.42 0.36 92 1009.1
20260506145904 6 271 0.0 0.0 0.08 1.42 0.33 92 1009.1
20260506145801 6 273 0.0 0.0 0.08 1.42 0.33 92 1009.1
20260506145657 6 273 0.0 0.0 0.08 1.42 0.33 92 1009.1
20260506145550 6 221 0.0 0.0 0.08 1.42 0.33 93 1009.1
20260506145447 6 309 0.0 0.0 0.08 1.42 0.33 93 1009.1
20260506145340 6 309 0.0 0.0 0.08 1.42 0.33 93 1009.0
20260506145237 6 309 0.0 0.0 0.08 1.42 0.33 93 1009.0
20260506145130 6 309 0.0 0.0 0.08 1.42 0.33 93 1009.0
20260506145027 6 271 0.0 0.0 0.08 1.40 0.33 93 1009.0
20260506144659 6 271 0.0 0.0 0.08 1.40 0.30 92 1008.9
20260506144114 6 288 0.0 0.0 0.08 1.40 0.30 93 1008.9
20260506144007 6 288 0.0 0.0 0.08 1.40 0.30 93 1009.0
20260506143903 6 288 0.0 0.0 0.08 1.40 0.30 93 1008.9
20260506143757 6 288 0.0 0.0 0.08 1.40 0.28 93 1008.9
20260506143654 6 317 0.0 0.0 0.10 1.40 0.28 93 1008.9
20260506143547 6 297 0.0 0.0 0.13 1.40 0.28 93 1008.9
20260506143445 6 240 0.0 0.0 0.15 1.40 0.28 92 1008.9
20260506143126 6 342 0.0 0.0 0.15 1.40 0.28 92 1009.0
20260506143023 6 286 0.0 0.0 0.15 1.40 0.28 92 1008.9
20260506142916 6 254 0.0 0.0 0.15 1.40 0.28 92 1009.0
20260506142810 6 279 0.0 0.0 0.15 1.37 0.28 92 1009.0
20260506142703 6 273 0.0 0.0 0.15 1.37 0.28 92 1009.0
20260506142558 6 297 0.0 0.0 0.10 1.37 0.28 93 1009.1
20260506142237 6 223 0.0 0.0 0.10 1.37 0.28 93 1009.1
20260506142132 6 290 0.0 0.0 0.10 1.37 0.28 92 1009.1
20260506142025 6 277 0.0 0.0 0.10 1.35 0.28 93 1009.1
20260506141920 6 277 0.0 0.0 0.10 1.35 0.25 93 1009.1
20260506141813 6 215 0.0 0.0 0.10 1.35 0.25 93 1009.1
20260506141706 6 300 0.0 0.0 0.13 1.35 0.25 93 1009.1
20260506141558 6 270 0.0 0.0 0.15 1.35 0.25 93 1009.1
20260506141454 6 242 0.0 0.0 0.18 1.35 0.25 93 1009.1
20260506141350 6 279 0.0 0.0 0.18 1.35 0.25 92 1009.0
20260506141248 6 221 0.0 0.0 0.18 1.35 0.25 92 1009.1
20260506141143 6 221 0.0 0.0 0.18 1.35 0.25 92 1009.0
20260506141037 6 221 0.0 0.0 0.18 1.35 0.25 92 1009.0
20260506140930 6 263 0.0 0.0 0.18 1.32 0.25 92 1009.0
20260506140824 6 285 0.0 0.0 0.13 1.32 0.23 92 1009.0
20260506140720 6 290 0.0 0.0 0.13 1.32 0.23 92 1009.0
20260506140617 6 274 0.0 0.0 0.13 1.32 0.23 92 1009.0
20260506140510 6 271 0.0 0.0 0.13 1.32 0.23 92 1008.9
20260506140405 6 288 0.0 0.0 0.13 1.30 0.23 92 1008.9
20260506140300 6 244 0.0 0.0 0.13 1.30 0.23 92 1008.9
20260506140155 6 244 0.0 0.0 0.15 1.30 0.20 92 1008.9
20260506140051 6 240 0.0 0.0 0.18 1.30 0.20 92 1008.9
20260506135944 6 247 0.0 0.0 0.18 1.30 0.20 92 1008.9
20260506135842 6 268 0.0 0.0 0.18 1.30 0.20 92 1008.9
20260506135736 6 244 0.0 0.0 0.18 1.30 0.20 92 1008.9
20260506135146 6 247 0.0 0.0 0.10 1.30 0.18 93 1008.8
20260506135040 6 244 0.0 0.0 0.10 1.30 0.18 93 1008.8
20260506134936 6 275 0.0 0.0 0.10 1.27 0.18 93 1008.9
20260506134831 6 275 0.0 0.0 0.10 1.27 0.18 92 1008.8
20260506134728 6 273 0.0 0.0 0.13 1.27 0.18 92 1008.9
20260506134622 6 245 0.0 0.0 0.15 1.27 0.18 92 1008.9
20260506134514 6 245 0.0 0.0 0.18 1.27 0.18 92 1008.8
20260506134411 6 245 0.0 0.0 0.18 1.27 0.18 92 1008.8
20260506134304 6 245 0.0 0.0 0.18 1.27 0.18 92 1008.8
20260506134158 6 237 0.0 0.0 0.18 1.27 0.18 92 1008.8
20260506133836 6 233 0.0 0.0 0.08 1.24 0.15 92 1008.8
20260506133511 6 294 0.0 0.0 0.08 1.24 0.15 92 1008.9
20260506133406 6 294 0.0 0.0 0.08 1.22 0.15 92 1008.9
20260506133259 6 294 0.0 0.0 0.08 1.22 0.15 92 1008.9
20260506133153 6 294 0.0 0.0 0.08 1.22 0.13 92 1008.9
20260506133051 6 294 0.0 0.0 0.10 1.22 0.13 92 1008.9
20260506132949 6 294 0.0 0.0 0.10 1.22 0.13 92 1008.9
20260506132842 6 294 0.0 0.0 0.13 1.22 0.13 92 1008.9
20260506132738 6 294 0.0 0.0 0.15 1.22 0.13 92 1008.9
20260506132632 6 294 0.0 0.0 0.15 1.22 0.13 92 1008.9
20260506132307 6 258 0.0 0.0 0.15 1.22 0.13 92 1009.0
20260506132200 6 258 0.0 0.0 0.15 1.22 0.13 92 1008.9
20260506132053 6 258 0.0 0.0 0.15 1.22 0.13 92 1008.9
20260506131733 6 258 0.0 0.0 0.00 1.22 0.10 92 1008.9
20260506131627 6 258 0.0 0.0 0.00 1.22 0.10 92 1008.9
20260506131521 6 258 0.0 0.0 0.00 1.22 0.10 92 1008.9
20260506131414 6 258 0.0 0.0 0.00 1.19 0.10 92 1009.0
20260506131310 6 258 0.0 0.0 0.00 1.19 0.10 92 1008.9
20260506131208 6 258 0.0 0.0 0.00 1.19 0.08 92 1009.0
20260506131102 6 258 0.0 0.0 0.00 1.19 0.08 92 1009.0
20260506131000 6 295 0.0 0.0 0.00 1.19 0.08 92 1009.0
20260506130856 6 312 0.0 0.0 0.00 1.19 0.08 92 1009.0
20260506130749 6 312 0.0 0.0 0.00 1.19 0.08 92 1009.0
20260506130644 6 312 0.0 0.0 0.00 1.19 0.08 92 1009.0
20260506130320 6 257 0.0 0.0 0.00 1.19 0.08 91 1009.0
20260506130215 6 247 0.0 0.0 0.00 1.19 0.08 91 1009.0
20260506130111 6 247 0.0 0.0 0.00 1.19 0.08 91 1009.0
20260506130006 6 247 0.0 0.0 0.00 1.19 0.08 91 1008.9
20260506125901 6 247 0.0 0.0 0.00 1.19 0.08 91 1008.9
20260506125759 6 247 0.0 0.0 0.00 1.19 0.08 91 1009.0
20260506125656 6 246 0.0 0.0 0.00 1.19 0.08 91 1009.0
20260506125552 6 258 0.0 0.0 0.00 1.17 0.08 91 1009.0
20260506125448 6 302 0.0 0.0 0.00 1.17 0.08 91 1009.0
20260506125127 6 261 0.0 0.0 0.00 1.17 0.08 91 1008.9
20260506125024 6 261 0.0 0.0 0.00 1.17 0.08 91 1008.9
20260506124917 6 261 0.0 0.0 0.00 1.17 0.08 91 1008.9
20260506124814 6 261 0.0 0.0 0.00 1.17 0.08 91 1008.9
20260506124706 6 261 0.0 0.0 0.00 1.17 0.08 91 1008.8
20260506124602 6 261 0.0 0.0 0.00 1.17 0.08 91 1008.8
20260506124456 6 261 0.0 0.0 0.00 1.17 0.08 91 1008.8
20260506124129 6 244 0.0 0.0 0.00 1.17 0.08 91 1008.8
20260506124023 6 244 0.0 0.0 0.00 1.17 0.08 91 1008.9
20260506123701 6 175 0.0 0.0 0.00 1.14 0.08 90 1008.9
20260506123554 6 273 0.0 0.0 0.00 1.14 0.08 90 1008.9
20260506123450 6 259 0.0 0.0 0.00 1.14 0.05 91 1008.9
20260506123129 6 244 0.0 0.0 0.00 1.14 0.05 90 1008.9
20260506123025 6 244 0.0 0.0 0.00 1.14 0.05 90 1008.9
20260506122923 6 244 0.0 0.0 0.00 1.14 0.05 90 1008.8
20260506122819 6 244 0.0 0.0 0.00 1.14 0.05 90 1008.8
20260506122714 6 244 0.0 0.0 0.00 1.14 0.05 90 1008.8
20260506122355 6 244 0.0 0.0 0.00 1.14 0.05 90 1008.8
20260506122251 6 244 0.0 0.0 0.00 1.14 0.05 90 1008.8
20260506122147 6 244 0.0 0.0 0.00 1.14 0.05 90 1008.7
20260506122041 6 244 0.0 0.0 0.00 1.14 0.05 90 1008.8
20260506121936 6 244 0.0 0.0 0.00 1.14 0.05 90 1008.7
20260506121833 6 244 0.0 0.0 0.00 1.14 0.05 90 1008.8
20260506121514 7 244 0.0 0.0 0.00 1.14 0.05 90 1008.7
20260506121410 7 244 0.0 0.0 0.00 1.14 0.05 90 1008.7
20260506121307 7 279 0.0 0.0 0.00 1.14 0.05 90 1008.6
20260506121202 7 226 0.0 0.0 0.00 1.12 0.05 90 1008.7
20260506120841 7 268 0.0 0.0 0.00 1.12 0.03 89 1008.7
20260506120738 7 290 0.0 0.0 0.00 1.12 0.03 89 1008.6
20260506120632 7 290 0.0 0.0 0.00 1.12 0.03 89 1008.6
20260506120309 7 308 0.0 4.8 0.00 1.12 0.03 89 1008.6
20260506120205 7 229 0.0 3.2 0.00 1.12 0.03 89 1008.7
20260506120100 7 236 0.0 3.2 0.00 1.12 0.03 89 1008.7
20260506115955 7 218 0.0 3.2 0.00 1.12 0.03 89 1008.7
20260506115848 7 218 0.0 3.2 0.00 1.12 0.03 89 1008.7
20260506115742 7 303 0.0 1.6 0.00 1.12 0.03 89 1008.8
20260506115641 7 303 0.0 4.8 0.00 1.12 0.03 89 1008.8
20260506115534 7 300 0.0 4.8 0.00 1.12 0.03 88 1008.9
20260506115432 7 300 0.0 4.8 0.00 1.12 0.03 89 1008.9
20260506115327 7 309 0.0 4.8 0.00 1.12 0.03 89 1008.9
20260506115222 7 246 0.0 3.2 0.00 1.12 0.03 89 1008.9
20260506114856 7 250 0.0 0.0 0.00 1.12 0.03 88 1009.0
20260506114751 7 250 0.0 9.7 0.00 1.12 0.03 88 1009.0
20260506114426 7 250 0.0 9.7 0.00 1.12 0.03 88 1008.9
20260506114323 7 250 1.6 9.7 0.00 1.12 0.03 88 1009.0
20260506114220 7 209 0.0 9.7 0.00 1.12 0.03 88 1008.9
20260506113412 7 209 1.6 14.5 0.00 1.12 0.00 86 1008.7
20260506113308 7 202 1.6 14.5 0.00 1.12 0.00 86 1008.7
20260506113202 7 271 3.2 14.5 0.00 1.12 0.00 86 1008.6
20260506113056 7 273 3.2 14.5 0.00 1.12 0.00 86 1008.6
20260506112951 7 267 3.2 14.5 0.00 1.12 0.00 86 1008.5
20260506112847 7 247 1.6 14.5 0.00 1.12 0.00 86 1008.5
20260506112745 7 217 1.6 14.5 0.00 1.12 0.00 86 1008.5
20260506112640 7 239 1.6 14.5 0.00 1.12 0.00 86 1008.5
20260506112538 7 240 1.6 14.5 0.00 1.12 0.00 86 1008.5
20260506112434 7 262 1.6 14.5 0.00 1.12 0.00 86 1008.5
20260506112332 7 269 1.6 14.5 0.00 1.12 0.00 86 1008.4
20260506112229 7 227 1.6 14.5 0.00 1.12 0.00 86 1008.4
20260506112125 7 220 0.0 14.5 0.00 1.12 0.00 86 1008.4
20260506112023 8 313 0.0 9.7 0.00 1.12 0.00 86 1008.3
20260506111657 8 291 0.0 11.3 0.00 1.12 0.00 86 1008.3
20260506111552 8 254 0.0 11.3 0.00 1.12 0.00 86 1008.3
20260506111446 8 264 0.0 11.3 0.00 1.12 0.00 86 1008.3
20260506110900 8 297 0.0 0.0 0.00 1.12 0.00 88 1008.1
20260506110756 8 300 0.0 0.0 0.00 1.12 0.00 88 1008.0
20260506110653 8 294 0.0 0.0 0.00 1.12 0.00 89 1008.0
20260506110326 8 285 0.0 0.0 0.00 1.12 0.00 89 1007.9
20260506110222 8 202 0.0 0.0 0.00 1.12 0.00 90 1007.9
20260506110119 8 268 0.0 0.0 0.00 1.12 0.00 90 1007.8
20260506110016 8 315 0.0 1.6 0.00 1.12 0.00 90 1007.8
20260506105909 8 241 0.0 0.0 0.00 1.09 0.00 90 1007.8
20260506105802 8 225 0.0 0.0 0.00 1.09 0.00 90 1007.8